Regional Weather Roundup
Issued by NWS Spokane, WA

Home | Current Version | Previous Version | Text Only | Print | Product List | Glossary On
Versions: 1 2 3 4 5 6 7 8 9 10 11 12 13 14 15 16 17 18 19 20 21 22 23 24 25 26 27 28 29 30 31 32 33 34 35 36 37 38 39 40 41 42 43 44 45 46 47 48 49 50
000
NZUS01 KOTX 251410
RWROTX
EASTERN WASHINGTON/NORTHERN IDAHO ROUNDUP
NATIONAL WEATHER SERVICE, SPOKANE WA
700 AM PDT MON MAY 25 2015

Note: "fair" indicated few or no clouds below 12,000 feet with no
significant weather and/or obstructions to visibility.

...NORTHEAST WASHINGTON AND NORTHERN IDAHO PANHANDLE...

CITY           SKY/WX    TMP DP  RH WIND       PRES   REMARKS
SPOKANE INTL   CLOUDY    55  51  86 S6        29.88R
SPOKANE DOWNTO CLOUDY    59  51  75 SE5       29.89R
COEUR D ALENE  CLOUDY    54  48  82 NE10      29.88F
DEER PARK      CLOUDY    53  51  93 N12       29.88R
SANDPOINT      RAIN      52  52 100 N12       29.92F
BONNERS FERRY  LGT RAIN  52  50  93 S5        29.93R

...SOUTHEAST WASHINGTON AND SOUTHERN IDAHO PANHANDLE...

CITY           SKY/WX    TMP DP  RH WIND       PRES   REMARKS
WALLA WALLA    CLOUDY    59  45  59 SW10      29.91R
PULLMAN/MOSCOW CLOUDY    53  45  74 NW3       29.92R
LEWISTON       CLOUDY    60  52  74 E5        29.87R
LOWELL           N/A     51  48  89 N3        29.91R

...COLUMBIA BASIN...

CITY           SKY/WX    TMP DP  RH WIND       PRES   REMARKS
EPHRATA        SUNNY     60  47  61 N17       29.86R
MOSES LAKE     MOSUNNY   57  47  69 N3        29.88R
TRI CITIES     CLOUDY    60  48  64 SW9       29.89R
HERMISTON      CLOUDY    58  46  64 SW6       29.91R
PENDLETON      CLOUDY    55  44  66 CALM      29.92R

...EAST SLOPES CASCADES...

CITY           SKY/WX    TMP DP  RH WIND       PRES   REMARKS
THE DALLES     CLOUDY    58  47  66 NW16G24   29.92R
YAKIMA         MOSUNNY   62  42  47 W6        29.90R
ELLENSBURG     SUNNY     57  43  59 NW13G22   29.90R
WENATCHEE      SUNNY     60  41  49 NW6       29.89R
OMAK           CLOUDY    57  48  72 NW8       29.90R

...SOUTHERN BRITISH COLUMBIA...

CITY           SKY/WX    TMP DP  RH WIND       PRES   REMARKS
PENTICTON      MOSUNNY   57  50  77 NE5       29.93F
CASTLEGAR      PTSUNNY   55  52  88 N5        29.89S
CRANBROOK      PTSUNNY   55  46  71 W3        29.88F

...WESTERN MONTANA...

CITY           SKY/WX    TMP DP  RH WIND       PRES   REMARKS
MISSOULA       MOSUNNY   48  40  73 SE5       29.93S

...NEIGHBORING CITIES...

CITY           SKY/WX    TMP DP  RH WIND       PRES   REMARKS
SEATTLE        CLOUDY    53  48  83 SW7       30.02R
CALGARY        PTSUNNY   55  39  54 S6        29.90S



USA.gov is the U.S. government's official web portal to all federal, state and local government web resources and services.